WetterOnline ( https://www.wetteronline.de )

Wetter aktuell Arkona

Aktuelles Wetter: Kap Arkona/Rügen (42m)

6-stündlich | Neueste Meldungen
Ortszeit Temperatur Wetter
Mi, 08.04. 2:00 7.9° C wolkig
Di, 07.04. 20:00 9.5° C wolkig
Di, 07.04. 14:00 12.3° C wolkenlos
Di, 07.04. 8:00 8.5° C fast wolkenlos
Di, 07.04. 2:00 10.5° C wolkenlos
Mo, 06.04. 20:00 13.2° C wolkenlos
Mo, 06.04. 14:00 9.0° C wolkenlos
Mo, 06.04. 8:00 7.2° C wolkenlos
Ortszeit Temperatur Wetter
Mi, 08.04. 5:00 7.7° C wolkig
Mi, 08.04. 4:50 7.7° C wolkig
Mi, 08.04. 4:40 8.0° C wolkig
Mi, 08.04. 4:30 8.6° C wolkig
Mi, 08.04. 4:20 8.6° C wolkig
Mi, 08.04. 4:10 8.5° C wolkig
Mi, 08.04. 4:00 8.4° C wolkig
Mi, 08.04. 3:30 8.2° C wolkig
Mi, 08.04. 3:00 8.1° C wolkig
Mi, 08.04. 2:30 8.0° C wolkig
Mi, 08.04. 2:00 7.9° C wolkig
Ortszeit Relative Feuchte Sichtweite
Mi, 08.04. 2:00 70% 30 km
Di, 07.04. 20:00 68% 40 km
Di, 07.04. 14:00 61% 35 km
Di, 07.04. 8:00 84% 10 km
Di, 07.04. 2:00 58% 30 km
Mo, 06.04. 20:00 51% 30 km
Mo, 06.04. 14:00 70% 21 km
Mo, 06.04. 8:00 65% 27 km
Ortszeit Relative Feuchte Sichtweite
Mi, 08.04. 5:00 72% 35 km
Mi, 08.04. 4:50 72% -
Mi, 08.04. 4:40 70% -
Mi, 08.04. 4:30 67% 45 km
Mi, 08.04. 4:20 67% -
Mi, 08.04. 4:10 67% -
Mi, 08.04. 4:00 68% 35 km
Mi, 08.04. 3:30 68% 40 km
Mi, 08.04. 3:00 69% 35 km
Mi, 08.04. 2:30 74% 35 km
Mi, 08.04. 2:00 70% 30 km
Ortszeit Niederschlagsmenge Niederschlagsart
Mi, 08.04. 2:00 0.0 l/m2 in 6 Std. -
Di, 07.04. 20:00 0.0 l/m2 in 12 Std. -
Di, 07.04. 14:00 0.0 l/m2 in 6 Std. -
Di, 07.04. 8:00 0.0 l/m2 in 12 Std. -
Di, 07.04. 2:00 0.0 l/m2 in 6 Std. -
Mo, 06.04. 20:00 0.0 l/m2 in 12 Std. -
Mo, 06.04. 14:00 0.0 l/m2 in 6 Std. -
Mo, 06.04. 8:00 0.0 l/m2 in 12 Std. -
Ortszeit Niederschlagsmenge Niederschlagsart
Mi, 08.04. 5:00 0.0 l/m2 in 1 Std. -
Mi, 08.04. 4:50 keine Meldung -
Mi, 08.04. 4:40 keine Meldung -
Mi, 08.04. 4:30 0.0 l/m2 in 1 Std. -
Mi, 08.04. 4:20 keine Meldung -
Mi, 08.04. 4:10 keine Meldung -
Mi, 08.04. 4:00 0.0 l/m2 in 1 Std. -
Mi, 08.04. 3:30 0.0 l/m2 in 1 Std. -
Mi, 08.04. 3:00 0.0 l/m2 in 1 Std. -
Mi, 08.04. 2:30 0.0 l/m2 in 1 Std. -
Mi, 08.04. 2:00 0.0 l/m2 in 1 Std. -
Ortszeit Stärke Spitze Richtung
km/h Bft. km/h Grad Sektor
Mi, 08.04. 2:00 2 1 13 210° SW
Di, 07.04. 20:00 11 2 47 280° W
Di, 07.04. 14:00 31 5 44 270° W
Di, 07.04. 8:00 31 5 48 280° W
Di, 07.04. 2:00 24 4 30 210° SW
Mo, 06.04. 20:00 22 4 36 160° S
Mo, 06.04. 14:00 22 4 40 120° SO
Mo, 06.04. 8:00 18 3 36 160° S
Ortszeit Stärke Spitze Richtung
km/h Bft. km/h Grad Sektor
Mi, 08.04. 5:00 7 2 7 100° O
Mi, 08.04. 4:50 7 2 - 100° O
Mi, 08.04. 4:40 7 2 - 110° O
Mi, 08.04. 4:30 6 1 6 130° SO
Mi, 08.04. 4:20 6 1 - 130° SO
Mi, 08.04. 4:10 4 1 - 130° SO
Mi, 08.04. 4:00 4 1 7 110° O
Mi, 08.04. 3:30 4 1 7 60° NO
Mi, 08.04. 3:00 4 1 7 30° NO
Mi, 08.04. 2:30 0 0 4 - -
Mi, 08.04. 2:00 2 1 4 210° SW
Ortszeit Untergrenze Bedeckung Gattung
total tief tief mittel hoch
Mi, 08.04. 2:00 8700 m 8/8 0/8 - - -
Di, 07.04. 20:00 9000 m 7/8 0/8 - - -
Di, 07.04. 14:00 - 0/8 0/8 - - -
Di, 07.04. 8:00 3600 m 1/8 1/8 - - -
Di, 07.04. 2:00 - 0/8 0/8 - - -
Mo, 06.04. 20:00 - 0/8 0/8 - - -
Mo, 06.04. 14:00 - 0/8 0/8 - - -
Mo, 06.04. 8:00 - 0/8 0/8 - - -
Ortszeit Bedeckungsgrad in Achtel und Wolkenuntergrenze
Mi, 08.04. 5:00 7(9000m) 8(10500m) 8(10500m)
Mi, 08.04. 4:50 7(9000m) 8(10500m) 8(10500m)
Mi, 08.04. 4:40 8(9000m) 8(10500m)
Mi, 08.04. 4:30 8(9000m) 8(9000m) 8(10500m)
Mi, 08.04. 4:20 8(9000m) 8(9000m) 8(10500m)
Mi, 08.04. 4:10 8(9000m) 8(9000m) 8(10500m)
Mi, 08.04. 4:00 8(9000m) 8(9000m) 8(10500m)
Mi, 08.04. 3:30 7(9000m) 8(9000m) 8(10500m)
Mi, 08.04. 3:00 1(8700m) 8(9000m) 8(10500m)
Mi, 08.04. 2:30 8(8700m) 8(10500m) 8(9000m)
Mi, 08.04. 2:00 8(8700m) 8(10500m) 8(10500m)
Ortszeit Luftdruck NN (hPa) Tendenz (hPa in 3 Std.)
Mi, 08.04. 2:00 1034 + 0,1
Di, 07.04. 20:00 1033 + 0,4
Di, 07.04. 14:00 1032 + 1,9
Di, 07.04. 8:00 1027 + 2,5
Di, 07.04. 2:00 1023 + 0,3
Mo, 06.04. 20:00 1022 - 0,5
Mo, 06.04. 14:00 1024 - 0,7
Mo, 06.04. 8:00 1025 - 0,9
Ortszeit Luftdruck NN (hPa) Tendenz (hPa in 3 Std.)
Mi, 08.04. 5:00 1033 - 1,2
Mi, 08.04. 4:50 1033 keine Meldung
Mi, 08.04. 4:40 1033 keine Meldung
Mi, 08.04. 4:30 1033 - 0,9
Mi, 08.04. 4:20 1033 keine Meldung
Mi, 08.04. 4:10 1033 keine Meldung
Mi, 08.04. 4:00 1033 - 0,9
Mi, 08.04. 3:30 1033 - 0,7
Mi, 08.04. 3:00 1033 - 0,4
Mi, 08.04. 2:30 1033 - 0,3
Mi, 08.04. 2:00 1034 + 0,1
Ortszeit Schneehöhe (cm)
Mi, 08.04. 2:00 0
Di, 07.04. 20:00 0
Di, 07.04. 14:00 0
Di, 07.04. 8:00 0
Di, 07.04. 2:00 0
Mo, 06.04. 20:00 0
Mo, 06.04. 14:00 0
Mo, 06.04. 8:00 0
Ortszeit Schneehöhe (cm)
Mi, 08.04. 5:00 0
Mi, 08.04. 4:50 0
Mi, 08.04. 4:40 0
Mi, 08.04. 4:30 0
Mi, 08.04. 4:20 0
Mi, 08.04. 4:10 0
Mi, 08.04. 4:00 0
Mi, 08.04. 3:30 0
Mi, 08.04. 3:00 0
Mi, 08.04. 2:30 0
Mi, 08.04. 2:00 0
Link zu dieser Seite / Seite empfehlen

Das Wetter in ...